This demonstration page uses our WeatherBlox Daily Observations layout. Learn more.

Left ArrowRight Arrow

Hourly Observations for March 22, 2015

Temp ( °F °C ) Dew Point ( °F °C ) Humidity (%) Winds ( mph kmh ) Pressure ( in mb ) Visibility ( mi km ) Precip ( " mm )
12:51 am 00:51 Clear 60 15.6 35 1.7 39 39 NW 9 15 30.02 1017 10 16 0.00 0.00
1:51 am 01:51 Clear 55 12.8 36 2.2 49 49 WNW 7 11 30.02 1017 10 16 0.00 0.00
2:51 am 02:51 Clear 54 12.2 36 2.2 51 51 NW 6 9 30.01 1016 10 16 0.00 0.00
3:51 am 03:51 Clear 50 10 37 2.8 61 61 SE 5 7 30.02 1017 10 16 0.00 0.00
4:51 am 04:51 Clear 50 10 38 3.3 63 63 SSE 5 7 30.04 1017 10 16 0.00 0.00
5:51 am 05:51 Clear 49 9.4 38 3.3 66 66 E 5 7 30.06 1018 10 16 0.00 0.00
6:51 am 06:51 Sunny 49 9.4 38 3.3 66 66 Calm 30.08 1019 10 16 0.00 0.00
7:51 am 07:51 Sunny 55 12.8 39 3.9 55 55 Calm 30.10 1019 10 16 0.00 0.00
8:51 am 08:51 Sunny 61 16.1 38 3.3 43 43 VRB 3 6 30.11 1020 10 16 0.00 0.00
9:51 am 09:51 Sunny 65 18.3 38 3.3 37 37 VRB 5 7 30.11 1020 10 16 0.00 0.00
10:51 am 10:51 Sunny 71 21.7 37 2.8 29 29 VRB 6 9 30.09 1019 10 16 0.00 0.00
11:51 am 11:51 Sunny 76 24.4 32 0 20 20 WNW 8 13 30.05 1018 10 16 0.00 0.00
12:51 pm 12:51 Sunny 78 25.6 29 -1.7 16 16 NW 13 20 30.02 1017 10 16 0.00 0.00
1:51 pm 13:51 Sunny 79 26.1 32 0 18 18 W 15 24 30.01 1016 10 16 0.00 0.00
2:51 pm 14:51 Sunny 81 27.2 31 -0.6 16 16 WNW 7 11 29.98 1015 10 16 0.00 0.00
3:51 pm 15:51 Sunny 80 26.7 30 -1.1 16 16 NW 12 19 29.97 1015 10 16 0.00 0.00
4:51 pm 16:51 Sunny 81 27.2 26 -3.3 13 13 NW 16 26 29.96 1014 10 16 0.00 0.00
5:51 pm 17:51 Sunny 78 25.6 22 -5.6 12 12 WNW 17 28 29.96 1015 10 16 0.00 0.00
6:51 pm 18:51 Clear 72 22.2 25 -3.9 17 17 NW 13 20 29.98 1015 10 16 0.00 0.00
7:51 pm 19:51 Clear 69 20.6 24 -4.4 18 18 NNW 12 19 30.00 1016 10 16 0.00 0.00
8:51 pm 20:51 Clear 64 17.8 26 -3.3 24 24 WNW 7 11 30.01 1016 10 16 0.00 0.00
9:51 pm 21:51 Clear 59 15 28 -2.2 31 31 NNW 7 11 30.02 1017 10 16 0.00 0.00
10:51 pm 22:51 Clear 59 15 26 -3.3 28 28 WNW 9 15 30.02 1017 10 16 0.00 0.00
11:51 pm 23:51 Clear 55 12.8 27 -2.8 34 34 ESE 3 6 30.01 1016 10 16 0.00 0.00

Powered by AerisWeather